Change the Weather History Date:

Monday, November 7, 2011

  Actual Average Record
Temperature  
Mean Temperature 42 °F -  
Max Temperature 62 °F 47 °F 66 °F (1996)
Min Temperature 23 °F 30 °F 21 °F (2002)
Degree Days  
Heating Degree Days 22    
Moisture  
Dew Point 32 °F    
Average Humidity 74    
Maximum Humidity 92    
Minimum Humidity 39    
Precipitation  
Precipitation 0.00 in - - ()
Sea Level Pressure  
Sea Level Pressure 30.29 in    
Wind  
Wind Speed 1 mph (WNW)    
Max Wind Speed 6 mph    
Max Gust Speed -    
Visibility 10 miles    
Events      
Averages and records for this station are not official NWS values.
T = Trace of Precipitation, MM = Missing Value Source: NWS Daily Summary

Daily Weather History Graph

Daily Weather History Graph

Search for Another Location

Airport or City:

Trip Planner

Search our weather history database for the weather conditions in past years. The results will help you decide how hot, cold, wet, or windy it might be!

Date:

Astronomy

Nov. 07, 2011 Rise Set
Actual Time 6:33 AM EST 4:38 PM EST
Civil Twilight 6:04 AM EST 5:08 PM EST
Nautical Twilight 5:30 AM EST 5:41 PM EST
Astronomical Twilight 4:57 AM EST 6:14 PM EST
Moon 2:50 PM EST (11/7) 3:30 AM EST (11/7)
Length of Visible Light 11h 04m
Length of Day
10h 04m
Waxing Gibbous, 91% of the Moon is Illuminated
Nov 7
Waxing Gibbous
Nov 10
Full
Nov 18
Last Quarter
Nov 25
New
Dec 2
First Quarter

Hourly Weather History & Observations

Time (EST) Temp. Dew Point Humidity Pressure Visibility Wind Dir Wind Speed Gust Speed Precip Events Conditions
12:52 AM 27.0 °F 24.1 °F 89% 30.34 in 10.0 mi Calm Calm - N/A   Clear
1:52 AM 26.1 °F 24.1 °F 92% 30.34 in 10.0 mi Calm Calm - N/A   Clear
2:52 AM 25.0 °F 23.0 °F 92% 30.33 in 10.0 mi Calm Calm - N/A   Clear
3:52 AM 25.0 °F 21.9 °F 88% 30.34 in 10.0 mi Calm Calm - N/A   Clear
4:52 AM 24.1 °F 21.0 °F 88% 30.35 in 10.0 mi Calm Calm - N/A   Clear
5:52 AM 23.0 °F 19.9 °F 88% 30.36 in 10.0 mi Calm Calm - N/A   Clear
6:52 AM 23.0 °F 19.9 °F 88% 30.35 in 10.0 mi Calm Calm - N/A   Clear
7:52 AM 28.0 °F 26.1 °F 92% 30.35 in 9.0 mi Calm Calm - N/A   Clear
8:52 AM 34.0 °F 28.9 °F 82% 30.34 in 10.0 mi Calm Calm - N/A   Clear
11:52 AM 57.0 °F 33.1 °F 40% 30.26 in 10.0 mi NNW 4.6 mph - N/A   Clear
12:52 PM 60.1 °F 35.1 °F 39% 30.24 in 10.0 mi Variable 3.5 mph - N/A   Overcast
1:52 PM 62.1 °F 37.9 °F 41% 30.22 in 10.0 mi Variable 4.6 mph - N/A   Partly Cloudy
2:52 PM 59.0 °F 37.0 °F 44% 30.22 in 10.0 mi West 5.8 mph - N/A   Scattered Clouds
3:52 PM 57.9 °F 37.9 °F 47% 30.22 in 10.0 mi West 4.6 mph - N/A   Clear
4:52 PM 52.0 °F 37.9 °F 59% 30.23 in 10.0 mi WSW 4.6 mph - N/A   Clear
5:52 PM 52.0 °F 37.9 °F 59% 30.25 in 10.0 mi NW 3.5 mph - N/A   Mostly Cloudy
7:52 PM 42.1 °F 37.9 °F 85% 30.26 in 10.0 mi Calm Calm - N/A   Scattered Clouds
8:52 PM 43.0 °F 39.0 °F 86% 30.26 in 10.0 mi Calm Calm - N/A   Mostly Cloudy
9:52 PM 46.0 °F 39.9 °F 79% 30.26 in 10.0 mi Calm Calm - N/A   Overcast
10:52 PM 46.0 °F 41.0 °F 83% 30.24 in 10.0 mi Calm Calm - N/A   Overcast
11:52 PM 45.0 °F 41.0 °F 86% 30.25 in 10.0 mi Calm Calm - N/A   Overcast